Location: Evergreen Manor
(41.4083°N, 81.4939°W)
Time: 15:26:31
(UTC+00:00)

BREEZE-M DEB (TANK) - Pass Details

Date: 11 December 2019
Orbit: 437 x 13847 km, 45.9° (Epoch: 25 January)

Event Time Altitude Azimuth Distance (km) Brightness Sun altitude
Rises 00:13:27 0° 290° (WNW) 3,262 7.2 -24.9°
Reaches altitude 10° 00:16:17 10° 295° (WNW) 1,841 5.7 -25.4°
Enters shadow 00:18:17 28° 308° (NW) 894 3.7 -25.8°
